SES-11 (ECHOSTAR 105) (42967 NORAD) Tracking and Keplerian Element Data

This shows tracking and keplerian element data for the satellite.

Feedback or suggestion? Click here.




ElementValue
Catalog42967
NameSES-11 (ECHOSTAR 105)
Epoch Orbit559
Epoch Day111.22307569
Epoch Year2019
RAAN107.3658
Inclination0.0378
Eccentricity0.0002929
Argument of Perigee279.0754
Mean Anonmoly157.9132
Mean Motion1.00271751
Decay Rate-1.07E-06
L11 42967U 17063A 19111.22307569 -.00000107 00000-0 00000+0 0 9990
L22 42967 0.0378 107.3658 0002929 279.0754 157.9132 1.00271751 5595

Live tracking and technical data element details for SES-11 (ECHOSTAR 105) (NORAD 42967). SES-11 (ECHOSTAR 105) can be tracked NOW for your location showing map with azimuth and elevation plus other details from your city location.

Track the satellite on the map from your city or location and see movement details for azimuth, elevation, latitude, longitude, range, height, and movement on the map or in text.







IsCatalogInMostPopularTable: catalog: 42967, numindb: 262
Update: records affected: 1



GetName: 42967 SES-11 (ECHOSTAR 105)

Hit Count: updated at: Tue, 23 Apr 2019 02:10:20 GMT